Showing default

EROS C3, 54880

Orbit data source: Space-Track

EROS C3, 54880 is a payload satellite owned by ImageSat (IL) in LEO that was launched on Fri, 30 Dec 2022 UTC via an FALCON 9 launch vehicle from the Air Force Western Test Range (AFWTR). Payload-class satellites include a variety of spacecraft equipped with specific instruments for various scientific and technological missions. These include communications satellites like Starlink; space stations such as the ISS; scientific satellites like the Hubble; Earth observation satellites from companies like Planet Labs, Umbra, and HawkEye 360; GPS; miniature CubeSats for education and research; and military/defense satellites.

Loading next visibility...
Identifier
54880, 2022-179A
Orbit
LEO
Country
Flag of ILIL / ISRA
Related business
Manufacturer
IAI
Mission
Operational Commercial Imaging
Bus & Motor
OPSAT-3000, Unknown motor
Mass
400 kg wet, ~350 kg dry
Launch date (UTC)
2022-12-30 (3 years ago)
Launch vehicle
FALCON 9
Launch site
Air Force Western Test Range (AFWTR)
Object type
Payload
Rocket body
Debris
Shape & HBR
Taper Cyl + 2 Pan, 1.8 m
Radar Cross Section
3.516 m², Large (>1 m²)

Expand to show TLE details & history
Last TLE update: 22 hours ago

TLE from 22 hours ago
0 EROS C3
1 54880U 22179A   26172.51756350  .00001820  00000-0  93547-4 0  9999
2 54880 139.3384  29.6512 0007475 350.8111   9.2560 15.10879047192988
Epoch: 2026-06-21T12:25Z
TLE epoch observation values (Epoch: 2026-06-21T12:25:17.486Z)
Latitude
-0.00002°
Longitude
-66.38834°
Altitude
527.939 km
Speed
7.604 km/s
True Right ascension
01h 58m 36s
True Declination
0° 00' 00"
Sunlit
Object was in daylight at epoch
Visualization orbit readout
Latitude
Unknown
Longitude
Unknown
Altitude
Unknown
Speed
Unknown
Apparent Right ascension
Unknown
Apparent Declination
Unknown
Sunlit
N/A
Visualization observer readout
Local Sidereal Time
21:23:37
Azimuth
Unknown
Elevation
Unknown
Doppler factor
Unknown
Orbital elements
Apogee altitude
541.005 km
Perigee altitude
530.668 km
Semi-major axis
6,913.974 km
Eccentricity
0.00075
Inclination
139.3384°
RAAN
29.6512°
Arg. of periapsis
350.8111°
True anomaly
9.26979°
Mean anomaly
9.256°
Eccentric anomaly
9.26289°
Mean motion
3.7753 °/min
Orbital period
95.36 mins
BSTAR
0.000093547
Loading maneuver chart data...
Computing Atmospheric mass density...
Loading historical data...
Loading historical data...
Loading historical data...
Loading historical data...
Loading historical data...
Loading historical data...
Loading historical data...
Other satellites on launch #179 in the year 2022 (2022-12-30 UTC)

Documentation

Showing up to 5 results
|